[[{"header":{"parameterUnit":"m.s-1","parameterCategory":1,"la1":30.2991,"la2":30.254,"lo1":-89.0895,"lo2":-89.0444,"dy":0.0017,"dx":0.0017,"nx":28,"ny":28,"refTime":"2024-05-12T03:00:00:Z","depth":0,"parameterNumber":2,"parameterNumberName":"U-component_of_WINDS"},"data":[0,0,0,0,0,0,0,0,0,0,0,0,0,0,0,0,0,0,0,0,0,0,0,0,0,0,0,0,0,0,0,0,0,0,0,0,0,0,0,0,0,0,0,0,0,0,0,0,0,0,0,0,0,0,0,0,0,0,-3.6551,-3.6552,0,-3.6697,-3.6699,-3.6701,-3.6749,-3.6748,-3.6748,-3.6747,-3.6896,-3.69,-3.6905,0,0,0,0,0,0,0,0,0,0,0,0,0,-3.631,-3.6314,-3.655,-3.6552,-3.6554,-3.6697,-3.6699,-3.6701,-3.6749,-3.6748,-3.6748,-3.6747,-3.6894,-3.69,-3.6905,0,0,0,0,0,0,0,0,0,0,0,0,0,-3.6431,-3.6316,-3.655,-3.6595,-3.6601,-3.6697,-3.6699,-3.6702,-3.6749,-3.6748,-3.6747,-3.6746,-3.6892,-3.6899,-3.6906,-3.6967,0,0,-3.6927,-3.693,0,0,0,0,0,0,0,0,-3.6424,-3.644,-3.6587,-3.6592,-3.6599,-3.6704,-3.6669,-3.679,-3.6749,-3.6693,-3.6747,-3.6746,-3.6833,-3.6844,-3.6874,-3.6974,-3.698,-3.6927,-3.6931,-3.6934,-3.6936,0,0,0,0,0,0,0,-3.6416,-3.6434,-3.6609,-3.6589,-3.6596,-3.6608,-3.6624,-3.6692,-3.6766,-3.6698,-3.6702,-3.6718,-3.6836,-3.6867,-3.6878,-3.6982,-3.6927,-3.6933,-3.6937,-3.694,-3.7139,-3.714,0,0,0,0,0,0,-3.64,-3.6427,-3.6604,-3.6613,-3.6508,-3.6613,-3.6631,-3.6671,-3.6766,-3.6779,-3.6719,-3.672,-3.6856,-3.687,-3.6883,-3.696,-3.6934,-3.6941,-3.6945,-3.7138,-3.7139,-3.7141,0,0,0,0,0,0,-3.6395,-3.6416,-3.6598,-3.6521,-3.6545,-3.6618,-3.6663,-3.6674,-3.6706,-3.6782,-3.6795,-3.6738,-3.6856,-3.6873,-3.6946,-3.6966,-3.6944,-3.695,-3.7136,-3.7138,-3.714,-3.7115,0,0,0,0,0,0,-3.6388,-3.6413,-3.6438,-3.6521,-3.6549,-3.6658,-3.6664,-3.6678,-3.6718,-3.6721,-3.6803,-3.6815,-3.6856,-3.6935,-3.6952,-3.6975,-3.6955,-3.7135,-3.7137,-3.7139,-3.7114,-3.7115,-3.7117,0,0,0,0,0,-3.6379,-3.6425,-3.6439,-3.646,-3.6581,-3.666,-3.6675,-3.6722,-3.6719,-3.6744,-3.6793,-3.6813,-3.6961,-3.6942,-3.6962,-3.6987,-3.7134,-3.7137,-3.7139,-3.7113,-3.7115,-3.7117,0,0,0,0,0,0,-3.6341,-3.6436,-3.6453,-3.6527,-3.6585,-3.6668,-3.67,-3.6722,-3.6782,-3.6782,-3.6837,-3.6855,-3.6923,-3.6962,-3.6939,-3.705,-3.7048,-3.7055,-3.7022,-3.7024,-3.7026,-3.7014,-3.6961,0,0,0,0,0,-3.6341,-3.6398,-3.6478,-3.6535,-3.6563,-3.6627,-3.6663,-3.6694,-3.6756,-3.678,-3.6834,-3.6893,-3.6953,-3.6991,-3.705,-3.712,-3.7138,-3.7147,-3.7148,-3.7149,-3.7154,-3.7193,-3.7198,-3.7149,-3.7149,-3.7149,0,0,-3.6342,-3.6401,-3.6433,-3.6529,-3.6578,-3.6634,-3.6647,-3.6706,-3.6748,-3.6789,-3.686,-3.6902,-3.6971,-3.7042,-3.7076,-3.7077,-3.7172,-3.7153,-3.7152,-3.7157,-3.7196,-3.7201,-3.7205,-3.7151,-3.7151,-3.7151,0,0,-3.6373,-3.6423,-3.6477,-3.6525,-3.6598,-3.664,-3.6653,-3.6732,-3.6762,-3.6834,-3.6866,-3.6916,-3.7019,-3.7066,-3.7104,-3.7153,-3.7173,-3.717,-3.7177,-3.7214,-3.7218,-3.7222,-3.7238,-3.7243,-3.7175,-3.7175,-3.7175,0,-3.6364,-3.6451,-3.6501,-3.6559,-3.6599,-3.6639,-3.6693,-3.6738,-3.6826,-3.6853,-3.6853,-3.6982,-3.7031,-3.7114,-3.7126,-3.7155,-3.7171,-3.7161,-3.7214,-3.7218,-3.7222,-3.7238,-3.7244,-3.7174,-3.7174,-3.7174,-3.7175,0,-3.6437,-3.6497,-3.6531,-3.6616,-3.666,-3.6716,-3.6773,-3.6813,-3.684,-3.6881,-3.6954,-3.7015,-3.7087,-3.7109,-3.7136,-3.7195,-3.7194,-3.7203,-3.7202,-3.7225,-3.7241,-3.7248,-3.7173,-3.7173,-3.7174,-3.7174,0,0,-3.6447,-3.6559,-3.6571,-3.6609,-3.6693,-3.674,-3.6797,-3.6868,-3.69,-3.696,-3.7008,-3.7094,-3.7103,-3.7146,-3.7178,-3.7211,-3.7245,-3.7217,-3.7219,-3.7219,-3.7313,-3.7304,-3.7311,-3.7259,-3.7261,-3.7262,-3.7307,0,-3.6488,-3.6592,-3.6638,-3.6721,-3.6776,-3.6814,-3.6864,-3.692,-3.696,-3.7013,-3.7057,-3.7117,-3.7125,-3.7151,-3.7185,-3.7233,-3.7264,-3.7231,-3.7304,-3.7306,-3.7284,-3.732,-3.7311,-3.7351,-3.7313,-3.7315,-3.7315,0,-3.6549,-3.6609,-3.6697,-3.6774,-3.6799,-3.6842,-3.6911,-3.6961,-3.7025,-3.7052,-3.71,-3.7131,-3.7192,-3.7187,-3.7271,-3.7247,-3.728,-3.7308,-3.731,-3.7318,-3.7311,-3.7327,-3.7365,-3.737,-3.7326,-3.7325,-3.7324,0,-3.6547,-3.665,-3.6715,-3.6747,-3.6839,-3.6868,-3.6908,-3.6971,-3.7011,-3.7071,-3.7097,-3.7162,-3.7198,-3.7248,-3.7296,-3.7288,-3.7375,-3.7374,-3.7398,-3.7397,-3.7414,-3.7412,-3.7456,-3.7436,-3.7436,-3.7436,-3.7436,0,-3.6587,-3.6639,-3.6715,-3.6756,-3.6815,-3.6867,-3.6925,-3.6967,-3.7023,-3.7072,-3.7109,-3.7154,-3.7215,-3.7268,-3.7306,-3.7369,-3.7385,-3.7408,-3.7417,-3.7404,-3.7401,-3.7425,-3.7424,-3.7438,-3.7437,-3.7437,-3.7437,0,-3.6594,-3.6647,-3.6721,-3.6802,-3.6823,-3.6863,-3.6932,-3.6972,-3.7014,-3.7075,-3.7093,-3.7159,-3.7222,-3.7275,-3.7359,-3.7384,-3.745,-3.7461,-3.7428,-3.7432,-3.7453,-3.745,-3.7513,-3.7524,-3.7498,-3.7498,-3.7498,0,-3.6615,-3.6656,-3.6741,-3.6776,-3.6815,-3.6872,-3.6912,-3.6965,-3.7006,-3.7082,-3.7113,-3.718,-3.7235,-3.7335,-3.739,-3.7454,-3.7467,-3.7485,-3.7477,-3.7462,-3.7466,-3.7463,-3.7467,-3.7485,-3.7485,-3.7485,-3.7485,0,-3.6648,-3.6672,-3.6729,-3.6795,-3.6842,-3.6897,-3.6953,-3.6979,-3.7043,-3.7086,-3.7152,-3.7195,-3.728,-3.7345,-3.7415,-3.7455,-3.748,-3.7487,-3.7496,-3.7482,-3.7461,-3.7472,-3.7428,-3.7485,-3.7485,-3.7485,-3.7485,-3.7485,-3.6662,-3.67,-3.6765,-3.6827,-3.6875,-3.6926,-3.6967,-3.7015,-3.707,-3.7144,-3.7172,-3.7239,-3.7302,-3.7398,-3.7439,-3.7491,-3.7495,-3.7507,-3.7511,-3.7513,-3.751,-3.7453,-3.7504,-3.7504,-3.7505,-3.7505,-3.7505,0,-3.6696,-3.674,-3.6796,-3.6873,-3.6921,-3.6941,-3.7004,-3.7043,-3.7101,-3.7158,-3.7212,-3.7287,-3.7351,-3.7411,-3.7477,-3.7507,-3.752,-3.7523,-3.7521,-3.7529,-3.7504,-3.749,-3.7511,-3.7511,-3.7511,-3.7511,-3.7511,-3.7511,-3.6719,-3.6784,-3.6816,-3.6904,-3.6948,-3.7014,-3.7048,-3.7095,-3.714,-3.7222,-3.7275,-3.7314,-3.7372,-3.7443,-3.7501,-3.7517,-3.7539,-3.7539,-3.7557,-3.7533,-3.7531,-3.753,-3.7516,-3.7543,-3.7543,-3.7578,-3.7579,-3.7579]},{"header":{"parameterUnit":"m.s-1","parameterCategory":1,"la1":30.2991,"la2":30.254,"lo1":-89.0895,"lo2":-89.0444,"dy":0.0017,"dx":0.0017,"nx":28,"ny":28,"refTime":"2024-05-12T03:00:00:Z","depth":0,"parameterNumber":3,"parameterNumberName":"V-component_of_WINDS"},"data":[0,0,0,0,0,0,0,0,0,0,0,0,0,0,0,0,0,0,0,0,0,0,0,0,0,0,0,0,0,0,0,0,0,0,0,0,0,0,0,0,0,0,0,0,0,0,0,0,0,0,0,0,0,0,0,0,0,0,5.7949,5.795,0,5.8016,5.8017,5.8018,5.7957,5.7955,5.7953,5.795,5.8015,5.8019,5.8023,0,0,0,0,0,0,0,0,0,0,0,0,0,5.7765,5.7769,5.7949,5.795,5.7951,5.8016,5.8017,5.8018,5.7958,5.7955,5.7952,5.7949,5.8014,5.8018,5.8023,0,0,0,0,0,0,0,0,0,0,0,0,0,5.784,5.777,5.7949,5.7929,5.7928,5.8016,5.8017,5.8018,5.7958,5.7955,5.7951,5.7948,5.8012,5.8018,5.8024,5.8134,0,0,5.8042,5.8045,0,0,0,0,0,0,0,0,5.7835,5.7846,5.7931,5.793,5.7929,5.7975,5.7976,5.8057,5.7959,5.7947,5.795,5.7946,5.8004,5.8011,5.8031,5.8137,5.814,5.8043,5.8046,5.8049,5.805,0,0,0,0,0,0,0,5.783,5.7843,5.7975,5.7932,5.7931,5.7915,5.7922,5.7991,5.7995,5.7947,5.7943,5.7952,5.8003,5.8025,5.8032,5.8141,5.8042,5.8048,5.8051,5.8054,5.8339,5.8343,0,0,0,0,0,0,5.7828,5.7839,5.7973,5.7977,5.7873,5.7921,5.7929,5.7964,5.7994,5.7995,5.7955,5.7949,5.8017,5.8025,5.8034,5.8164,5.8049,5.8054,5.8058,5.8335,5.834,5.8344,0,0,0,0,0,0,5.7824,5.784,5.7971,5.7907,5.7923,5.7928,5.7968,5.7967,5.7989,5.8,5.8,5.7978,5.8014,5.8026,5.811,5.8165,5.8057,5.8062,5.833,5.8336,5.8342,5.8425,0,0,0,0,0,0,5.7819,5.7839,5.7882,5.7909,5.7926,5.8046,5.7972,5.7971,5.8,5.7993,5.8021,5.8022,5.8012,5.8101,5.8116,5.8172,5.8067,5.8325,5.8333,5.834,5.8418,5.8433,5.8447,0,0,0,0,0,5.7813,5.7903,5.7885,5.7901,5.798,5.805,5.8059,5.8048,5.8005,5.8047,5.8054,5.8021,5.8158,5.811,5.8126,5.8185,5.8321,5.8331,5.8339,5.8411,5.843,5.8447,0,0,0,0,0,0,5.7881,5.7906,5.7886,5.7988,5.8017,5.8039,5.8092,5.8069,5.811,5.8101,5.8083,5.809,5.8178,5.819,5.8137,5.8292,5.8232,5.8245,5.8281,5.83,5.8314,5.8309,5.8072,0,0,0,0,0,5.7908,5.7964,5.7982,5.8069,5.8085,5.8087,5.8117,5.8105,5.8134,5.8146,5.8159,5.8188,5.8236,5.8269,5.8315,5.842,5.8424,5.8468,5.8482,5.8494,5.8505,5.856,5.8579,5.8373,5.8373,5.8373,0,0,5.7964,5.7985,5.8021,5.8084,5.8105,5.8162,5.8098,5.816,5.8201,5.8155,5.8235,5.8246,5.8276,5.8371,5.8413,5.8383,5.8563,5.8506,5.8515,5.8519,5.8571,5.859,5.8608,5.8379,5.8378,5.8377,0,0,5.8095,5.8117,5.8192,5.8215,5.8249,5.8249,5.8267,5.8293,5.8299,5.8379,5.8345,5.8394,5.8479,5.8502,5.8525,5.8665,5.8635,5.868,5.8756,5.881,5.8826,5.884,5.8888,5.8906,5.8691,5.8691,5.8691,0,5.816,5.8245,5.8233,5.8298,5.8326,5.8288,5.8363,5.8386,5.8432,5.8452,5.8418,5.8524,5.8542,5.8641,5.8675,5.8696,5.8714,5.8676,5.8825,5.8839,5.8852,5.8898,5.8916,5.8696,5.8695,5.8695,5.8694,0,5.8322,5.8382,5.8438,5.8485,5.852,5.8589,5.8586,5.8623,5.8608,5.8612,5.8693,5.8714,5.8763,5.8786,5.8772,5.8882,5.8863,5.8828,5.8766,5.8877,5.8919,5.8937,5.8703,5.8701,5.87,5.8699,0,0,5.8496,5.8537,5.8557,5.8578,5.8613,5.8658,5.8725,5.8774,5.8805,5.8839,5.8894,5.8967,5.8935,5.8961,5.8949,5.8997,5.9104,5.8955,5.8956,5.8981,5.9225,5.925,5.9271,5.9086,5.9089,5.9092,5.9222,0,5.8627,5.8746,5.8737,5.8848,5.8902,5.8867,5.8925,5.8952,5.8958,5.9003,5.9008,5.906,5.9014,5.9029,5.9075,5.9082,5.9153,5.9072,5.9135,5.9137,5.9126,5.9293,5.932,5.9442,5.9239,5.9242,5.9244,0,5.8795,5.8836,5.8953,5.8979,5.9001,5.9054,5.9098,5.9143,5.9172,5.9172,5.9202,5.9182,5.9249,5.9188,5.9278,5.9224,5.9249,5.9256,5.926,5.9264,5.9196,5.93,5.9481,5.9499,5.927,5.9268,5.9266,0,5.8909,5.8993,5.9073,5.9092,5.9125,5.9163,5.9178,5.9204,5.9234,5.9272,5.9291,5.9336,5.936,5.9395,5.9388,5.9344,5.9479,5.9418,5.948,5.948,5.9508,5.9506,5.9694,5.9528,5.9528,5.9527,5.9527,0,5.9054,5.9127,5.9124,5.9174,5.9254,5.9242,5.9321,5.9332,5.9355,5.9405,5.9378,5.9424,5.9413,5.9459,5.9454,5.9528,5.954,5.9541,5.9538,5.9542,5.9542,5.9557,5.9548,5.9532,5.9531,5.953,5.9529,0,5.9194,5.9196,5.9281,5.9305,5.9313,5.9371,5.9391,5.9437,5.944,5.9504,5.9518,5.9522,5.9575,5.9572,5.9632,5.9628,5.972,5.9708,5.971,5.9707,5.9768,5.9762,5.9971,5.9997,5.9815,5.9817,5.9819,0,5.9286,5.9341,5.9372,5.9404,5.9422,5.9474,5.9505,5.9495,5.9528,5.9566,5.9607,5.9658,5.9698,5.9784,5.9791,5.9836,5.9824,5.9895,5.9831,5.9833,5.9823,5.982,5.9824,5.9907,5.9909,5.991,5.9912,0,5.9449,5.9447,5.9493,5.954,5.9577,5.9613,5.9645,5.9673,5.9667,5.9705,5.9759,5.979,5.9851,5.9901,5.9945,5.9958,5.9934,5.9932,5.9948,5.9952,5.9951,5.9951,5.9742,5.9927,5.9925,5.9924,5.9923,5.9923,5.9567,5.9614,5.9643,5.9694,5.9718,5.9749,5.9794,5.9803,5.9849,5.9898,5.989,5.9951,5.9978,6.0033,6.0051,6.0098,6.0072,6.0096,6.0102,6.0108,6.0114,5.9945,6.0106,6.0105,6.0105,6.0104,6.0104,0,5.9727,5.9744,5.9792,5.9839,5.9879,5.9854,5.9889,5.9924,5.9978,6.0006,6.0046,6.0108,6.0157,6.0169,6.0215,6.025,6.024,6.0262,6.0258,6.0262,6.0135,6.0116,6.027,6.027,6.027,6.027,6.0269,6.0269,5.9815,5.9893,5.9894,5.9983,5.9999,6.0059,6.0081,6.0109,6.0131,6.0202,6.0243,6.0251,6.0272,6.032,6.0363,6.0365,6.0382,6.0409,6.0407,6.0288,6.0271,6.0255,6.0237,6.0414,6.0414,6.0529,6.053,6.0531]}]]